[[{"header":{"parameterUnit":"m.s-1","parameterCategory":1,"la1":30.2991,"la2":30.254,"lo1":-89.0895,"lo2":-89.0444,"dy":0.0017,"dx":0.0017,"nx":28,"ny":28,"refTime":"2024-04-13T09:00:00:Z","depth":0,"parameterNumber":2,"parameterNumberName":"U-component_of_WINDS"},"data":[0,0,0,0,0,0,0,0,0,0,0,0,0,0,0,0,0,0,0,0,0,0,0,0,0,0,0,0,0,0,0,0,0,0,0,0,0,0,0,0,0,0,0,0,0,0,0,0,0,0,0,0,0,0,0,0,0,0,-1.5372,-1.5372,0,-1.5354,-1.5354,-1.5354,-1.5329,-1.5329,-1.5328,-1.5328,-1.5308,-1.5308,-1.5308,0,0,0,0,0,0,0,0,0,0,0,0,0,-1.5385,-1.5385,-1.5372,-1.5372,-1.5372,-1.5354,-1.5354,-1.5354,-1.5329,-1.5329,-1.5328,-1.5328,-1.5308,-1.5308,-1.5308,0,0,0,0,0,0,0,0,0,0,0,0,0,-1.5375,-1.5385,-1.5372,-1.5358,-1.5356,-1.5354,-1.5354,-1.5354,-1.5329,-1.5329,-1.5328,-1.5328,-1.5308,-1.5308,-1.5308,-1.5319,0,0,-1.5307,-1.5307,0,0,0,0,0,0,0,0,-1.5375,-1.5374,-1.536,-1.5359,-1.5357,-1.5343,-1.5351,-1.5342,-1.533,-1.534,-1.5328,-1.5327,-1.532,-1.5319,-1.5317,-1.5318,-1.5317,-1.5307,-1.5307,-1.5307,-1.5307,0,0,0,0,0,0,0,-1.5376,-1.5375,-1.5365,-1.536,-1.5358,-1.5352,-1.535,-1.535,-1.5334,-1.5339,-1.5337,-1.5335,-1.5319,-1.5317,-1.5316,-1.5317,-1.5307,-1.5307,-1.5307,-1.5307,-1.5327,-1.5327,0,0,0,0,0,0,-1.5379,-1.5376,-1.5366,-1.5365,-1.5365,-1.5352,-1.535,-1.5348,-1.5334,-1.5331,-1.5336,-1.5334,-1.5318,-1.5317,-1.5316,-1.5327,-1.5307,-1.5307,-1.5307,-1.5326,-1.5327,-1.5327,0,0,0,0,0,0,-1.538,-1.5379,-1.5367,-1.537,-1.5368,-1.5352,-1.5351,-1.5348,-1.5346,-1.5331,-1.5328,-1.5336,-1.5318,-1.5316,-1.5319,-1.5326,-1.5307,-1.5307,-1.5325,-1.5326,-1.5327,-1.5351,0,0,0,0,0,0,-1.538,-1.5379,-1.5383,-1.537,-1.5368,-1.537,-1.5352,-1.5348,-1.5346,-1.5344,-1.5331,-1.5329,-1.5317,-1.5319,-1.5318,-1.5326,-1.5306,-1.5324,-1.5326,-1.5327,-1.535,-1.5353,-1.5356,0,0,0,0,0,-1.5381,-1.539,-1.5383,-1.5382,-1.5372,-1.537,-1.5369,-1.5356,-1.5347,-1.5351,-1.5341,-1.5329,-1.5326,-1.532,-1.5319,-1.5326,-1.5324,-1.5325,-1.5327,-1.5348,-1.5352,-1.5356,0,0,0,0,0,0,-1.5403,-1.5388,-1.538,-1.5386,-1.538,-1.5366,-1.537,-1.536,-1.5356,-1.5354,-1.5338,-1.5335,-1.534,-1.5333,-1.5326,-1.5336,-1.5323,-1.5325,-1.534,-1.5344,-1.5347,-1.5347,-1.5306,0,0,0,0,0,-1.5409,-1.5409,-1.5396,-1.5402,-1.5399,-1.5386,-1.5384,-1.5375,-1.5368,-1.5365,-1.5355,-1.5349,-1.5346,-1.5345,-1.5342,-1.5349,-1.5346,-1.5354,-1.5357,-1.536,-1.5361,-1.5364,-1.5367,-1.5332,-1.5332,-1.5332,0,0,-1.5421,-1.5413,-1.5413,-1.5406,-1.54,-1.54,-1.5384,-1.5384,-1.5384,-1.5365,-1.5366,-1.536,-1.5351,-1.5356,-1.5358,-1.5351,-1.537,-1.5362,-1.5364,-1.5363,-1.5366,-1.5369,-1.5372,-1.5333,-1.5333,-1.5333,0,0,-1.5442,-1.5436,-1.5441,-1.5435,-1.5427,-1.5418,-1.5419,-1.5408,-1.5402,-1.5404,-1.539,-1.539,-1.5386,-1.538,-1.5377,-1.5398,-1.5386,-1.5397,-1.5413,-1.5416,-1.5419,-1.5421,-1.5428,-1.5431,-1.5399,-1.5399,-1.5399,0,-1.5457,-1.5457,-1.5444,-1.5446,-1.5443,-1.5427,-1.5431,-1.5427,-1.5418,-1.5416,-1.5409,-1.5404,-1.5397,-1.5401,-1.5406,-1.5404,-1.5405,-1.5398,-1.542,-1.5422,-1.5424,-1.543,-1.5433,-1.54,-1.54,-1.54,-1.54,0,-1.5476,-1.5476,-1.5481,-1.5473,-1.5471,-1.5474,-1.5462,-1.5461,-1.5453,-1.5445,-1.5447,-1.5438,-1.5433,-1.5434,-1.5425,-1.5437,-1.5432,-1.5423,-1.5409,-1.5429,-1.5434,-1.5437,-1.5402,-1.5401,-1.5401,-1.5401,0,0,-1.5509,-1.5496,-1.5497,-1.5494,-1.5484,-1.5484,-1.5486,-1.5482,-1.5482,-1.5477,-1.5478,-1.5476,-1.5468,-1.5464,-1.5455,-1.5458,-1.5475,-1.5448,-1.5447,-1.5452,-1.5486,-1.5493,-1.5496,-1.5468,-1.5468,-1.5468,-1.5487,0,-1.5528,-1.5531,-1.552,-1.5527,-1.5527,-1.5512,-1.5514,-1.5508,-1.5501,-1.55,-1.5493,-1.5491,-1.548,-1.5478,-1.5481,-1.5472,-1.5481,-1.5471,-1.5468,-1.5468,-1.5469,-1.5499,-1.5505,-1.5523,-1.5489,-1.5489,-1.549,0,-1.5549,-1.5546,-1.5552,-1.5543,-1.5542,-1.5544,-1.554,-1.5539,-1.5533,-1.5527,-1.5524,-1.5514,-1.5516,-1.5504,-1.5506,-1.5499,-1.5498,-1.5494,-1.5494,-1.5492,-1.5479,-1.5497,-1.5528,-1.5531,-1.5493,-1.5493,-1.5492,0,-1.5572,-1.5569,-1.5572,-1.557,-1.5559,-1.5561,-1.5557,-1.555,-1.5548,-1.5544,-1.5543,-1.5539,-1.5537,-1.5535,-1.5524,-1.5516,-1.5527,-1.5515,-1.5522,-1.5523,-1.5524,-1.5524,-1.5555,-1.5525,-1.5525,-1.5525,-1.5525,0,-1.5593,-1.5597,-1.5583,-1.5585,-1.5589,-1.5577,-1.5582,-1.5576,-1.557,-1.557,-1.5558,-1.5559,-1.5545,-1.5544,-1.5536,-1.5539,-1.5538,-1.5533,-1.5531,-1.5534,-1.5534,-1.5531,-1.553,-1.5526,-1.5526,-1.5526,-1.5526,0,-1.5618,-1.5609,-1.5611,-1.5601,-1.5599,-1.5603,-1.5594,-1.5595,-1.5588,-1.5589,-1.5589,-1.5577,-1.5576,-1.5565,-1.5561,-1.5556,-1.5562,-1.5557,-1.5564,-1.5562,-1.557,-1.5569,-1.5599,-1.5603,-1.5572,-1.5573,-1.5573,0,-1.5632,-1.5635,-1.5625,-1.5625,-1.5621,-1.5621,-1.5619,-1.5608,-1.5607,-1.56,-1.5603,-1.56,-1.5598,-1.5596,-1.5588,-1.5585,-1.5579,-1.559,-1.5579,-1.5582,-1.5579,-1.5578,-1.5578,-1.5592,-1.5593,-1.5593,-1.5593,0,-1.5656,-1.5652,-1.565,-1.5647,-1.5646,-1.5643,-1.5639,-1.5639,-1.5627,-1.5626,-1.5625,-1.5623,-1.562,-1.5617,-1.5613,-1.5609,-1.5599,-1.5597,-1.5599,-1.5601,-1.5605,-1.5602,-1.5569,-1.5596,-1.5596,-1.5596,-1.5596,-1.5595,-1.5675,-1.5677,-1.5671,-1.567,-1.5666,-1.5663,-1.5664,-1.5658,-1.5656,-1.5653,-1.5646,-1.5646,-1.564,-1.5634,-1.563,-1.5629,-1.5624,-1.5626,-1.5626,-1.5627,-1.5628,-1.5606,-1.5629,-1.5629,-1.5629,-1.5628,-1.5628,0,-1.5698,-1.5694,-1.5693,-1.5689,-1.5688,-1.568,-1.5675,-1.5675,-1.5675,-1.5671,-1.5669,-1.5667,-1.5666,-1.5657,-1.5655,-1.5656,-1.5651,-1.5655,-1.5655,-1.5654,-1.5634,-1.5632,-1.5659,-1.5659,-1.5659,-1.5659,-1.5659,-1.5659,-1.571,-1.5713,-1.5708,-1.5709,-1.5705,-1.5705,-1.5703,-1.57,-1.5697,-1.5696,-1.5694,-1.5689,-1.5683,-1.568,-1.5678,-1.5676,-1.5675,-1.5681,-1.5677,-1.5658,-1.5655,-1.5652,-1.5651,-1.5681,-1.5681,-1.5696,-1.5696,-1.5697]},{"header":{"parameterUnit":"m.s-1","parameterCategory":1,"la1":30.2991,"la2":30.254,"lo1":-89.0895,"lo2":-89.0444,"dy":0.0017,"dx":0.0017,"nx":28,"ny":28,"refTime":"2024-04-13T09:00:00:Z","depth":0,"parameterNumber":3,"parameterNumberName":"V-component_of_WINDS"},"data":[0,0,0,0,0,0,0,0,0,0,0,0,0,0,0,0,0,0,0,0,0,0,0,0,0,0,0,0,0,0,0,0,0,0,0,0,0,0,0,0,0,0,0,0,0,0,0,0,0,0,0,0,0,0,0,0,0,0,2.906,2.906,0,2.9038,2.9038,2.9037,2.9031,2.9032,2.9032,2.9032,2.9005,2.9005,2.9004,0,0,0,0,0,0,0,0,0,0,0,0,0,2.9094,2.9093,2.906,2.906,2.9059,2.9038,2.9038,2.9037,2.9031,2.9032,2.9032,2.9032,2.9006,2.9005,2.9004,0,0,0,0,0,0,0,0,0,0,0,0,0,2.9076,2.9093,2.906,2.9054,2.9053,2.9038,2.9038,2.9037,2.9031,2.9032,2.9032,2.9032,2.9006,2.9005,2.9004,2.8992,0,0,2.9,2.8999,0,0,0,0,0,0,0,0,2.9077,2.9075,2.9055,2.9054,2.9053,2.9038,2.904,2.9022,2.9031,2.904,2.9032,2.9032,2.9016,2.9014,2.9009,2.899,2.8989,2.9,2.8999,2.8998,2.8998,0,0,0,0,0,0,0,2.9078,2.9076,2.9051,2.9055,2.9054,2.9051,2.9049,2.9036,2.9027,2.9039,2.9038,2.9036,2.9015,2.901,2.9008,2.8989,2.9,2.8999,2.8998,2.8997,2.8959,2.8959,0,0,0,0,0,0,2.9081,2.9077,2.9052,2.905,2.9066,2.9051,2.9048,2.9042,2.9027,2.9025,2.9036,2.9036,2.9012,2.901,2.9007,2.8993,2.8998,2.8997,2.8997,2.896,2.8959,2.8959,0,0,0,0,0,0,2.9082,2.9079,2.9053,2.9064,2.906,2.905,2.9044,2.9042,2.9037,2.9025,2.9022,2.9033,2.9012,2.9009,2.8996,2.8992,2.8997,2.8996,2.896,2.896,2.8959,2.8963,0,0,0,0,0,0,2.9083,2.9079,2.9075,2.9064,2.906,2.9043,2.9043,2.9041,2.9035,2.9035,2.9021,2.9019,2.9012,2.8998,2.8995,2.899,2.8995,2.896,2.896,2.8959,2.8963,2.8962,2.8962,0,0,0,0,0,2.9084,2.9076,2.9075,2.9072,2.9055,2.9042,2.904,2.9034,2.9035,2.903,2.9023,2.9019,2.8993,2.8997,2.8993,2.8988,2.8961,2.896,2.8959,2.8963,2.8963,2.8962,0,0,0,0,0,0,2.9086,2.9075,2.9073,2.9062,2.9053,2.9042,2.9036,2.9033,2.9023,2.9023,2.9015,2.9011,2.8999,2.8992,2.8996,2.8975,2.8976,2.8975,2.898,2.898,2.8979,2.8981,2.8994,0,0,0,0,0,2.9086,2.9078,2.9068,2.9058,2.9054,2.9046,2.904,2.9036,2.9027,2.9023,2.9014,2.9004,2.8993,2.8986,2.8975,2.8962,2.8959,2.8956,2.8956,2.8956,2.8955,2.8947,2.8946,2.8957,2.8957,2.8957,0,0,2.9084,2.9077,2.9072,2.9059,2.9052,2.9043,2.9043,2.9033,2.9027,2.9021,2.9008,2.9001,2.8989,2.8976,2.897,2.897,2.8951,2.8955,2.8955,2.8954,2.8946,2.8945,2.8944,2.8957,2.8957,2.8957,0,0,2.9077,2.907,2.9062,2.9056,2.9045,2.904,2.9038,2.9027,2.9022,2.901,2.9005,2.8996,2.8978,2.897,2.8963,2.8953,2.895,2.895,2.8948,2.894,2.8939,2.8938,2.8935,2.8933,2.8949,2.8949,2.8949,0,2.9075,2.9063,2.9058,2.9049,2.9043,2.9039,2.903,2.9023,2.901,2.9005,2.9006,2.8984,2.8975,2.896,2.8958,2.8952,2.8949,2.8951,2.894,2.8939,2.8938,2.8934,2.8933,2.8949,2.8949,2.8949,2.8949,0,2.9062,2.9054,2.9048,2.9037,2.903,2.9021,2.9014,2.9007,2.9004,2.8998,2.8985,2.8975,2.8962,2.8958,2.8954,2.8943,2.8943,2.8942,2.8943,2.8937,2.8934,2.8932,2.8949,2.8949,2.8949,2.8949,0,0,2.9055,2.9042,2.9039,2.9034,2.9023,2.9016,2.9006,2.8996,2.899,2.8981,2.8972,2.8958,2.8957,2.8949,2.8944,2.8938,2.893,2.8937,2.8937,2.8936,2.8916,2.8917,2.8915,2.8928,2.8928,2.8928,2.8917,0,2.9046,2.9031,2.9026,2.9012,2.9004,2.9,2.8992,2.8984,2.8978,2.8969,2.8962,2.8952,2.8952,2.8947,2.8941,2.8933,2.8926,2.8933,2.8919,2.8919,2.8922,2.8914,2.8914,2.8905,2.8916,2.8915,2.8915,0,2.9033,2.9025,2.9012,2.9002,2.8998,2.8991,2.8981,2.8973,2.8963,2.8959,2.8951,2.8947,2.8936,2.8938,2.8922,2.8928,2.8921,2.8917,2.8916,2.8914,2.8916,2.8911,2.8902,2.89,2.8913,2.8913,2.8913,0,2.903,2.9015,2.9005,2.9001,2.8989,2.8984,2.8979,2.8969,2.8963,2.8954,2.8949,2.8938,2.8932,2.8923,2.8916,2.8918,2.8901,2.8902,2.8897,2.8897,2.8893,2.8893,2.8882,2.8889,2.8889,2.8889,2.8889,0,2.902,2.9011,2.9003,2.8997,2.8987,2.8982,2.8972,2.8966,2.8958,2.895,2.8945,2.8937,2.8928,2.8919,2.8913,2.8901,2.8898,2.8894,2.8892,2.8894,2.8895,2.889,2.889,2.8889,2.8889,2.8889,2.8889,0,2.9014,2.9008,2.8997,2.8987,2.8984,2.8978,2.8969,2.8962,2.8956,2.8946,2.8943,2.8934,2.8923,2.8915,2.89,2.8896,2.8883,2.8881,2.8887,2.8886,2.8881,2.8881,2.8866,2.8863,2.8873,2.8872,2.8872,0,2.9008,2.9002,2.8991,2.8986,2.8981,2.8973,2.8967,2.8961,2.8954,2.8943,2.8938,2.8927,2.8917,2.89,2.8891,2.8879,2.8877,2.8873,2.8876,2.8878,2.8877,2.8878,2.8877,2.8872,2.8872,2.8872,2.8872,0,2.8998,2.8996,2.8988,2.8979,2.8972,2.8965,2.8957,2.8953,2.8945,2.8938,2.8928,2.8921,2.8906,2.8895,2.8883,2.8876,2.8872,2.8872,2.887,2.8871,2.8875,2.8873,2.8885,2.8872,2.8872,2.8872,2.8872,2.8872,2.8992,2.8986,2.8978,2.8969,2.8963,2.8956,2.895,2.8944,2.8935,2.8924,2.892,2.8909,2.8899,2.8883,2.8876,2.8867,2.8867,2.8864,2.8863,2.8863,2.8863,2.8877,2.8864,2.8864,2.8864,2.8864,2.8864,0,2.8981,2.8976,2.8969,2.8959,2.8952,2.895,2.8942,2.8936,2.8926,2.8918,2.891,2.8897,2.8887,2.8877,2.8866,2.886,2.8858,2.8857,2.8857,2.8856,2.8863,2.8866,2.8859,2.8859,2.8859,2.8859,2.8859,2.8859,2.8975,2.8966,2.8962,2.8949,2.8944,2.8934,2.8929,2.8922,2.8916,2.8903,2.8894,2.8889,2.888,2.8868,2.8858,2.8855,2.8851,2.885,2.8847,2.8854,2.8855,2.8856,2.8858,2.885,2.8849,2.884,2.884,2.884]}]]